STARLINK-1718, 46674

Orbit data source: Space-Track

STARLINK-1718, 46674 is a payload satellite owned by SpaceX/Seattle (US) in LEO that was launched on Sun, 18 Oct 2020 UTC via an FALCON 9 launch vehicle from the Air Force Eastern Test Range (AFETR). Payload-class satellites include a variety of spacecraft equipped with specific instruments for various scientific and technological missions. These include communications satellites like Starlink; space stations such as the ISS; scientific satellites like the Hubble; Earth observation satellites from companies like Planet Labs, Umbra, and HawkEye 360; GPS; miniature CubeSats for education and research; and military/defense satellites.

Loading next visibility...
Identifier
46674, 2020-073E
Orbit
LEO
Country
Flag of USUS
Related business
Manufacturer
SpaceX/Seattle
Mission
Partially operational Commercial Communications
Bus & Motor
STARLINK, Unknown motor
Mass
260 kg wet, ~248 kg dry
Launch date (UTC)
2020-10-18 (6 years ago)
Launch vehicle
FALCON 9
Launch site
Air Force Eastern Test Range (AFETR)
Object type
Payload
Rocket body
Debris
Shape & HBR
Box + 1 Pan, 10.1 m
Radar Cross Section
13.562 m², Large (>1 m²)

Expand to show TLE details & history
Last TLE update: 6 hours ago

TLE from 6 hours ago
0 STARLINK-1718
1 46674U 20073E   26112.18316791  .00054354  00000-0  54072-3 0  9999
2 46674  53.0461  15.9546 0006381 108.4347 251.7362 15.65184536304112
Epoch: 2026-04-22T04:23Z
TLE epoch observation values (Epoch: 2026-04-22T04:23:45.707Z)
Latitude
0.00001°
Longitude
99.76591°
Altitude
374.961 km
Speed
7.685 km/s
True Right ascension
01h 03m 49s
True Declination
0° 00' 00"
Sunlit
Object was in daylight at epoch
Visualization orbit readout
Latitude
Unknown
Longitude
Unknown
Altitude
Unknown
Speed
Unknown
Apparent Right ascension
Unknown
Apparent Declination
Unknown
Sunlit
N/A
Visualization observer readout
Local Sidereal Time
17:48:01
Azimuth
Unknown
Elevation
Unknown
Doppler factor
Unknown
Orbital elements
Apogee altitude
377.295 km
Perigee altitude
368.679 km
Semi-major axis
6,751.124 km
Eccentricity
0.00064
Inclination
53.0461°
RAAN
15.9546°
Arg. of periapsis
108.4347°
True anomaly
251.66678°
Mean anomaly
251.7362°
Eccentric anomaly
251.70149°
Mean motion
3.91272 °/min
Orbital period
92.01 mins
BSTAR
0.00054072
Loading maneuver chart data...
Computing Atmospheric mass density...

Documentation

Showing up to 5 results
|